レナード彗星

449P/Leonard (1986)

English version
Home page
Updated on December 17, 2022

---------------------------------------------------------------------

・ プロフィール

符号 449P/1987 A2
発見日 1987年1月5日
発見光度 17.5等
発見者 Malcolm Hartley (Siding Spring)

・ 軌道要素

                    Epoch = 1986 June 19.0 TT
     T = 1986 June 19.90883 TT        Peri. = 176.44411
     e = 0.4756270                    Node  = 242.85094 2000.0
     q = 1.8938364 AU                 Incl. =  15.41548
       a =  3.6116209 AU   n = 0.14359881   P =   6.86 years

・ 光度変化

        m1 = 5.0 + 5 logΔ + 30.0 log r

        ※ 灰色の曲線は、m1 = 18.0 + 5 logΔ + 10.0 log r の光度曲線です。

---------------------------------------------------------------------

軌道要素は、CBET 5173に掲載されたものです。
光度グラフはComet for Windowsで作成したものです。

---------------------------------------------------------------------

Copyright(C) Seiichi Yoshida (comet@aerith.net). All rights reserved.